Hourly Weather Roundup
Issued by NWS Central Illinois

Home | Current Version | Previous Version | Text Only | Print | Product List | Glossary On
Versions: 1 2 3 4 5 6 7 8 9 10 11 12 13 14 15 16 17 18 19 20 21 22 23 24 25 26 27 28 29 30 31 32 33 34 35 36 37 38 39 40 41 42 43 44 45 46 47 48 49 50
000
NZUS43 KILX 040910
HWRILX

AREA WEATHER ROUNDUP
NATIONAL WEATHER SERVICE, LINCOLN IL
400 AM CDT SAT JUL 04 2015


CITY           SKY/WX    TMP DP  RH WIND       PRES   REMARKS
BLOOMINGTON    CLEAR     62  59  90 N5        29.98S
CHAMPAIGN      CLEAR     57  55  93 N3        29.96S FOG
DANVILLE       CLEAR     56  56  99 CALM      29.93S FOG
DECATUR        CLEAR     59  58  96 CALM      29.96S FOG
EFFINGHAM      CLEAR     63  60  90 CALM      29.96S FOG
FLORA          CLEAR     64  63  98 CALM      29.95R FOG
GALESBURG      CLEAR     56  56  97 CALM      29.97F FOG
JACKSONVILLE   CLEAR     63  61  95 CALM      29.95F FOG
LACON          CLEAR     58  57  96 CALM      29.97R FOG
LAWRENCEVILLE  PTCLDY    65  63  93 CALM      29.94R FOG
LITCHFIELD       N/A     62  60  95 CALM      29.95S FOG
$$


CITY           SKY/WX    TMP DP  RH WIND       PRES   REMARKS
LINCOLN        CLEAR     60  58  92 CALM      29.97S FOG
MACOMB         CLEAR     57  57  99 CALM      29.99F
MATTOON        CLEAR     61  59  93 CALM      29.94S FOG
MT CARMEL AP     N/A     66  63  88 CALM      29.93S FOG
OLNEY-NOBLE AP CLEAR     63  63 100 CALM      29.95R FOG
PARIS            N/A     60  59  98 CALM      29.96S FOG
PEORIA         CLEAR     62  58  86 CALM      29.97S FOG
PONTIAC        CLEAR     58  58  99 CALM      29.97S
RANTOUL        CLEAR     60  58  94 NW5       29.96S FOG
ROBINSON       CLEAR     63  62  97 CALM      29.95R FOG
SPRINGFIELD    FOG       62  59  90 CALM      29.96S VSB 1/4
TAYLORVILLE    FOG       57  57 100 CALM      29.95F VSB 1/4
$$

...REGIONAL REPORTS...


CITY           SKY/WX    TMP DP  RH WIND       PRES   REMARKS
CHICAGO O`HARE CLEAR     61  54  77 W3        29.95S
KANKAKEE       CLEAR     58  58  97 CALM      29.97R FOG
MOLINE         CLEAR     58  55  90 CALM      29.97S FOG
MOUNT STERLING NOT AVBL
MOUNT VERNON   CLEAR     64  59  82 N3        29.94F
PITTSFIELD     CLEAR     63  60  91 CALM      29.96F
QUINCY         CLEAR     62  59  90 N6        29.96F
ROCKFORD       CLEAR     59  56  89 CALM      29.98R
$$


CITY           SKY/WX    TMP DP  RH WIND       PRES   REMARKS
BURLINGTON     CLEAR     60  59  96 CALM      29.96F
CEDAR RAPIDS   CLEAR     57  56  96 CALM      29.97S
DES MOINES     PTCLDY    64  55  72 SW3       29.98S
KIRKSVILLE     CLEAR     57  55  93 CALM      29.99F FOG
OTTUMWA        CLEAR     57  57 100 NW3       29.96F
ST LOUIS       CLEAR     70  65  84 CALM      29.95S HAZE
$$


CITY           SKY/WX    TMP DP  RH WIND       PRES   REMARKS
TERRE HAUTE    PTCLDY    64  62  93 N3        29.94S
EVANSVILLE     PTCLDY    68  66  93 N5        29.92F FOG
INDIANAPOLIS   PTCLDY    64  60  87 NW3       29.93R
LAFAYETTE      CLEAR     57  56  96 CALM      29.95R FOG
MADISON        CLEAR     57  54  89 CALM      29.95S
MILWAUKEE      PTCLDY    61  55  81 SW6       29.95R
$$




USA.gov is the U.S. government's official web portal to all federal, state and local government web resources and services.